SCP
1 0 0 0 0 0 0 0 0 0 0 0 0 0 0 0 0 0 0 0 1 1 2 2 2 2 1 1 1 1 1 2 2 2 2 2 2 2 2 2 2 2 1 1 1 1 1 1 1
0 0 0 1 0 0 0 0 0 0 0 0 0 0 0 0 0 0 0 1 1 2 3 3 3 2 1 1 1 1 1 2 2 2 2 2 2 2 2 2 2 2 2 1 1 1 1 1 1
0 0 1 1 0 0 0 0 0 0 0 0 0 0 1 1 0 1 1 1 2 3 3 3 2 1 1 1 1 1 2 2 2 3 3 2 2 2 2 2 2 2 2 2 1 1 1 1 1
1 1 1 0 0 0 0 0 1 1 1 1 1 1 1 1 1 1 1 2 2 3 3 2 2 1 1 2 2 2 2 2 2 3 3 2 2 2 2 2 2 2 2 2 2 2 1 1 1
1 1 0 0 0 0 0 1 1 1 1 1 1 1 1 1 1 1 1 1 1 1 1 1 1 1 1 2 2 2 2 2 2 2 2 2 2 2 2 2 2 2 2 2 2 1 1 1 1
1 0 0 0 0 0 1 1 1 1 1 1 1 1 0 0 1 1 1 1 0 0 0 0 1 1 1 1 2 2 2 1 1 1 1 1 1 1 1 2 2 2 2 1 1 1 1 1 1
0 0 0 0 0 0 0 1 1 1 1 1 1 1 0 0 0 0 0 0 0 0 0 0 0 0 1 1 1 2 2 1 1 1 1 1 1 1 1 1 2 2 1 1 1 1 1 1 1
0 0 0 0 0 0 0 1 1 1 1 1 1 1 0 1 1 1 1 0 0 0 0 0 0 0 0 0 1 1 2 2 1 1 1 1 1 1 1 1 1 1 1 1 1 1 1 1 1
0 0 0 0 0 0 0 1 1 1 1 1 1 1 1 1 1 1 1 1 1 0 0 0 0 0 0 0 1 1 1 2 1 1 1 1 1 1 1 1 1 1 1 1 1 1 1 1 1
0 0 0 0 0 0 0 1 1 1 1 1 1 1 1 1 2 1 1 1 1 1 1 1 1 1 0 0 0 1 1 1 1 1 1 1 1 1 1 1 1 1 1 1 1 1 1 0 0
1 0 0 0 0 0 1 1 1 1 1 1 1 1 1 1 1 1 1 1 1 1 1 1 1 1 1 1 0 0 0 1 1 1 1 1 1 1 1 1 1 1 1 1 1 1 1 1 0
1 0 0 0 0 0 0 1 1 1 1 1 1 1 1 1 1 1 1 1 1 1 1 1 1 1 1 1 1 1 1 1 1 1 1 1 1 1 1 1 1 1 1 1 1 1 1 1 1
0 0 0 0 0 0 1 1 1 1 1 1 1 1 1 1 1 1 1 1 1 1 1 1 1 1 1 1 1 1 1 1 1 1 1 1 1 1 1 1 1 1 1 1 1 1 1 1 1
0 0 0 0 0 1 1 1 1 1 1 1 1 1 1 1 1 1 1 1 1 1 1 1 1 1 1 1 1 1 1 1 1 1 1 1 1 1 1 1 1 1 1 1 1 1 1 1 1
0 0 0 0 0 1 1 1 1 1 1 1 1 1 1 1 1 1 1 1 1 1 1 1 1 1 1 1 1 1 1 1 1 1 1 1 1 1 1 1 1 1 1 1 1 1 1 0 0
0 0 0 0 0 1 1 1 1 1 1 1 1 2 2 2 2 2 2 2 2 2 2 2 1 1 1 1 1 1 1 1 1 1 1 1 1 1 1 1 1 1 1 1 1 1 0 0 0
0 0 0 0 0 1 1 1 1 1 1 2 2 3 3 2 1 1 2 2 2 2 1 1 1 1 1 1 1 1 1 1 0 0 0 1 1 1 1 1 1 1 1 0 0 0 0 0 0
0 0 0 0 0 1 1 1 1 1 2 2 3 3 2 1 1 1 1 1 1 1 1 1 1 1 1 1 1 1 1 1 1 0 0 0 1 1 1 1 1 1 1 0 0 0 0 0 0
0 0 0 0 0 1 1 1 2 2 2 2 2 2 1 1 1 1 1 1 1 1 1 1 1 1 1 1 1 1 1 1 1 1 1 1 1 1 1 1 1 1 0 0 0 0 0 1 1
0 0 0 0 0 1 1 1 1 2 2 2 2 2 1 1 1 1 1 1 1 1 1 1 1 1 1 1 1 1 1 1 1 1 1 1 1 1 1 1 1 1 1 1 1 0 0 1 1
0 0 0 0 0 1 1 1 1 2 2 3 3 2 1 1 1 2 2 2 2 2 1 1 1 1 1 1 1 1 2 2 2 1 1 1 1 1 1 1 1 1 1 1 1 1 0 1 1
0 0 0 0 0 0 0 0 1 1 3 4 3 2 2 2 2 2 2 2 1 2 2 1 1 1 1 1 2 3 3 3 2 1 1 0 0 0 1 1 1 1 1 1 1 1 1 1 1
0 0 0 0 0 0 0 0 0 1 2 3 3 2 2 2 3 3 2 1 1 2 2 2 1 1 1 2 4 4 4 3 2 1 0 0 0 0 1 1 1 1 1 1 1 1 1 1 1
0 0 0 0 0 0 0 0 0 1 2 3 3 2 2 3 3 3 3 2 2 3 3 2 2 2 2 4 5 5 4 3 1 0 0 0 0 0 1 1 1 1 1 1 1 1 1 1 1
0 0 0 0 0 0 0 0 0 1 2 3 3 3 2 2 2 3 3 3 3 4 4 3 2 2 3 4 5 4 3 2 1 0 0 0 0 0 0 1 0 0 1 1 1 1 1 1 1
0 0 0 0 0 0 1 1 1 1 1 2 3 3 2 2 2 2 3 3 4 5 5 3 3 3 3 3 3 2 1 1 1 0 0 0 0 0 0 0 0 0 1 1 1 1 1 1 1
0 0 0 0 0 0 1 1 1 1 1 2 3 3 2 2 2 2 2 2 3 5 5 4 3 3 3 3 2 1 1 1 1 1 1 1 1 0 0 0 0 0 1 1 1 1 1 1 1
0 0 0 0 0 0 1 1 1 1 2 2 2 2 2 2 2 2 2 2 3 4 4 4 3 3 3 2 2 1 1 1 1 1 1 1 1 1 1 1 1 1 1 1 1 1 1 1 1
0 0 0 0 0 0 0 0 1 2 3 3 3 2 2 2 2 2 3 3 3 4 4 3 3 3 3 2 2 1 1 1 1 1 0 1 1 1 1 1 1 1 1 1 1 1 1 1 1
0 0 0 0 0 0 0 0 1 2 3 4 3 2 2 2 2 2 3 4 4 4 3 3 3 3 2 2 2 2 1 1 1 1 0 0 1 1 1 1 1 1 1 1 1 1 1 1 1
Wind_Speed
8 6 2 1 2 4 2 2 0 2 3 2 4 5 5 4 2 2 1 2 3 3 2 3 3 4 5 5 6 6 7 7 7 7 6 6 6 6 6 7 8 9 9 9 9 9 8 8 7
5 5 2 1 4 3 2 2 2 2 3 3 4 5 5 4 2 3 1 2 4 3 2 2 3 4 5 5 6 6 6 6 7 7 6 6 5 6 7 7 7 7 8 8 8 8 7 7 7
5 3 1 3 3 2 1 0 3 4 3 2 3 4 4 2 2 2 2 4 4 3 1 1 4 5 5 5 5 5 6 6 6 6 6 6 6 7 7 6 7 7 7 7 7 7 6 6 6
2 1 2 4 2 1 2 2 3 4 3 4 4 4 3 3 1 3 5 5 4 2 1 1 3 4 5 5 5 5 5 5 5 6 6 6 6 7 6 6 6 6 6 6 6 6 6 5 5
1 2 4 3 3 2 2 2 3 3 3 4 4 4 3 4 4 7 6 5 4 2 1 0 2 4 4 5 5 5 5 5 5 5 6 6 5 6 5 5 4 4 5 5 5 5 5 4 4
2 3 4 2 3 2 2 2 3 4 4 3 4 3 2 2 4 5 5 4 3 2 1 0 1 2 2 3 4 4 4 5 5 5 5 5 5 4 4 4 3 3 3 3 3 3 3 3 3
3 3 2 0 2 2 2 2 3 3 3 2 3 4 2 2 2 4 4 4 3 2 2 1 1 1 1 2 3 4 4 4 4 4 4 4 4 4 3 3 2 2 2 2 2 2 2 2 3
2 3 2 1 1 1 1 2 2 3 3 3 3 5 2 2 4 5 5 4 3 3 2 2 2 2 1 1 1 3 3 3 3 3 3 3 2 2 3 2 1 1 1 1 1 1 1 2 2
2 4 1 1 2 0 1 3 2 3 4 3 3 3 4 7 7 6 4 3 2 2 2 1 1 1 1 1 1 2 1 2 2 2 2 2 2 1 1 1 1 1 1 1 0 1 1 1 1
3 2 2 2 3 2 1 3 3 3 4 3 4 5 7 7 7 6 4 3 1 1 0 1 1 1 1 1 1 1 1 1 2 2 2 2 2 1 2 2 2 2 2 2 2 2 2 2 1
2 3 2 1 2 3 3 3 2 6 2 3 6 8 8 7 6 5 4 3 2 1 1 0 0 0 1 1 1 1 1 1 1 1 1 1 2 1 2 1 2 2 3 2 3 2 2 1 1
1 1 1 0 2 3 3 3 3 2 2 4 8 10 8 7 6 5 4 3 1 1 1 0 1 1 0 0 0 1 0 0 1 1 1 1 1 1 1 1 1 1 1 1 2 1 1 1 1
1 1 1 2 4 4 5 4 3 2 3 7 9 8 7 6 5 3 3 2 2 1 1 0 1 0 0 0 0 1 0 0 0 0 0 1 0 0 1 1 1 1 1 1 1 1 1 1 1
1 1 1 2 4 3 5 3 3 1 6 8 8 6 5 5 4 3 2 2 2 1 1 0 1 1 1 1 0 0 0 0 1 0 1 0 0 0 0 1 1 1 1 1 1 1 1 1 1
2 3 4 2 3 2 4 3 1 3 7 7 7 6 4 3 3 3 3 3 2 2 1 1 1 1 1 1 0 0 1 1 1 1 1 1 0 0 0 0 0 1 1 1 0 1 1 1 1
4 4 3 2 2 2 4 1 1 4 7 6 5 5 4 3 3 3 3 2 2 2 1 1 1 2 1 1 1 1 1 1 1 1 1 1 1 0 0 0 1 1 1 1 0 0 1 1 1
4 2 1 3 1 2 2 2 2 5 6 5 5 5 4 3 2 2 3 2 2 2 2 1 1 2 1 1 1 1 2 1 1 1 1 1 1 0 0 0 1 1 1 1 1 1 0 0 1
1 0 1 3 2 2 1 2 2 5 5 5 5 4 4 4 4 3 2 2 1 1 1 1 1 2 1 1 2 2 2 2 1 1 1 2 1 1 1 1 1 1 1 1 1 1 1 0 0
3 2 2 3 1 2 2 3 3 4 5 5 5 5 5 5 3 2 2 2 2 1 1 1 1 1 1 1 1 1 1 1 1 1 2 2 2 2 1 1 1 1 1 0 0 0 1 1 0
3 1 1 2 1 2 1 3 3 4 7 7 7 7 6 5 3 3 2 2 3 2 1 1 1 0 1 1 1 1 0 0 0 1 2 2 2 2 1 1 1 1 1 2 1 1 0 0 1
2 4 4 2 1 3 2 4 2 3 3 3 4 5 5 7 6 5 4 3 3 2 2 2 1 1 0 1 1 1 1 2 2 2 2 2 2 2 1 1 1 1 1 0 1 0 0 0 0
3 4 3 2 2 2 1 2 5 3 3 5 6 5 6 6 6 5 5 4 4 3 2 2 2 1 0 1 2 2 1 0 1 1 1 2 2 2 2 1 1 1 1 1 1 1 0 0 0
4 1 3 2 3 1 2 1 7 1 4 7 8 8 8 7 7 6 6 5 4 3 3 2 2 1 1 1 2 2 1 0 1 1 2 2 2 2 2 1 1 1 1 1 1 1 1 0 0
4 6 6 5 4 1 2 2 7 4 7 6 6 8 8 7 6 6 5 4 3 3 3 3 2 1 1 1 2 2 2 1 1 2 2 2 1 2 2 2 1 1 1 1 1 1 1 1 0
5 6 4 4 4 4 2 2 8 6 5 6 6 7 7 6 6 6 5 6 5 4 4 3 3 2 1 1 1 2 2 1 1 0 1 1 1 1 2 2 2 1 1 1 1 1 1 1 0
3 7 7 4 4 4 2 4 7 5 2 2 3 3 4 5 6 6 6 6 6 6 5 4 4 3 2 2 1 1 1 1 1 1 0 1 1 1 1 1 2 2 2 2 1 1 1 1 1
5 3 5 6 2 1 4 5 7 2 2 1 2 2 4 5 6 6 6 6 6 6 5 5 5 3 3 2 2 1 1 1 1 0 0 0 1 1 1 1 1 2 1 1 1 1 1 1 1
4 7 5 5 4 2 4 4 5 4 3 2 2 3 4 3 4 5 5 5 5 5 5 4 4 4 3 3 2 2 2 1 1 0 0 1 1 1 1 1 2 2 2 1 1 1 1 1 1
3 4 5 4 4 5 3 7 5 7 5 4 5 4 4 4 4 4 4 4 4 4 4 4 4 3 3 3 2 2 1 1 1 1 1 1 1 1 1 1 1 1 2 2 1 1 1 1 1
3 5 7 5 3 4 3 8 5 3 3 4 4 3 2 2 2 2 2 3 4 4 4 4 4 4 3 3 2 2 2 1 1 1 1 1 1 1 1 1 1 1 1 1 1 2 1 1 2
Wind_Direction
157 149 154 185 51 44 21 342 59 52 44 39 70 84 89 77 94 124 280 138 136 131 148 158 150 136 129 126 120 115 117 117 120 119 125 128 129 131 137 143 143 143 145 147 148 151 154 157 161
154 164 190 58 72 56 338 329 75 80 128 125 75 71 71 63 71 106 133 159 130 130 136 153 143 138 139 130 121 117 114 114 118 119 117 118 119 124 126 127 132 140 144 147 150 154 158 159 162
176 197 104 63 75 145 191 336 115 102 100 74 67 57 69 74 106 146 169 135 116 118 116 159 144 142 139 127 121 120 116 112 113 117 115 113 109 111 117 123 128 137 147 154 155 157 162 163 166
182 85 51 60 45 265 172 166 131 118 67 46 77 62 48 29 92 129 122 123 114 103 99 157 144 141 139 131 126 120 116 113 111 111 112 110 107 107 109 115 121 133 144 152 155 159 166 171 175
81 66 52 36 353 7 82 125 115 88 68 50 70 75 28 5 75 104 115 120 118 96 49 128 150 142 144 144 137 129 123 121 115 111 112 113 112 111 113 115 114 125 136 143 148 156 165 177 185
54 59 65 29 348 15 71 106 89 76 78 73 77 82 31 25 82 106 108 103 101 98 53 9 151 141 139 151 146 133 126 119 113 110 111 111 111 111 114 112 110 116 133 143 153 158 165 173 184
88 73 83 55 360 24 91 94 105 109 97 93 102 89 52 37 82 103 95 84 79 77 67 25 27 38 80 122 138 135 125 116 107 106 110 115 119 116 107 102 106 116 131 155 167 175 180 192 192
123 90 48 11 54 13 86 93 93 102 101 102 100 123 170 172 120 98 84 77 69 60 49 38 22 20 22 47 118 127 120 111 99 95 106 110 106 107 108 100 94 94 84 138 140 224 234 229 212
111 71 46 232 170 210 99 102 74 68 93 71 64 118 142 131 120 103 87 71 68 67 36 38 27 19 26 50 69 71 85 69 64 52 60 61 40 38 62 66 70 48 4 1 313 293 289 288 266
94 103 235 217 175 163 116 103 119 94 83 69 65 80 111 124 132 128 132 138 144 176 179 66 18 14 32 55 54 34 31 31 34 31 27 33 32 22 21 9 11 15 3 343 343 351 345 343 348
136 181 244 301 154 134 117 98 95 120 126 177 157 143 136 135 137 139 149 159 182 191 178 158 128 29 54 50 66 41 29 29 32 29 26 33 34 22 15 9 358 3 357 356 5 15 12 8 351
120 264 213 200 102 106 114 102 89 119 199 159 150 144 143 146 152 157 162 172 159 141 194 217 134 75 16 58 73 78 37 33 12 2 38 58 47 31 14 15 4 4 356 1 10 7 352 343 328
92 350 33 87 90 100 92 86 105 62 98 119 129 134 145 154 157 154 154 159 147 161 198 210 138 110 18 51 10 108 129 200 241 2 23 91 86 19 6 352 0 342 339 348 336 336 338 341 330
29 31 31 66 83 82 101 86 88 119 125 126 136 144 151 156 157 154 156 162 174 181 196 175 108 112 73 69 68 26 12 50 76 32 346 67 158 215 314 329 340 330 327 306 267 287 325 338 336
51 46 33 50 68 78 94 52 54 159 138 139 149 150 149 153 151 172 185 183 185 185 160 112 128 83 85 86 109 44 10 38 45 2 334 344 22 242 234 277 314 313 314 321 342 342 2 358 360
43 50 25 317 100 98 102 231 234 152 146 153 157 157 158 168 175 182 180 177 173 153 118 77 90 83 80 77 82 40 32 42 26 7 350 344 345 293 57 7 329 328 3 20 12 19 25 8 1
34 58 320 301 198 130 132 235 210 163 160 163 167 170 169 177 199 191 181 178 170 162 142 103 67 79 79 69 62 49 43 37 21 18 360 348 343 342 134 320 314 2 51 31 347 19 55 16 356
236 237 265 265 256 136 170 246 201 177 174 178 176 178 179 194 216 199 180 166 148 136 120 112 82 72 78 68 51 42 36 22 24 20 359 4 6 14 47 11 347 20 47 26 10 354 11 354 326
167 167 263 270 229 143 209 239 221 192 187 194 196 197 201 211 216 184 169 153 131 107 104 94 70 62 84 73 70 55 10 351 2 2 6 13 17 27 60 35 21 24 32 349 7 56 20 8 30
152 160 252 314 75 127 208 270 244 202 207 203 200 204 206 206 203 203 185 168 167 180 182 159 182 168 111 117 138 144 166 327 348 350 9 17 25 26 42 44 35 25 23 20 16 54 67 358 50
229 195 204 202 33 46 63 332 287 244 214 202 207 208 208 207 208 209 198 193 183 187 186 187 203 200 186 125 86 67 49 24 18 10 6 3 13 22 24 29 37 30 48 359 343 35 114 245 317
256 229 183 163 94 322 73 291 286 253 238 225 223 215 216 215 207 202 198 197 193 200 176 168 192 192 176 124 120 119 108 79 313 317 339 348 7 9 11 21 38 41 30 353 318 9 291 223 301
210 128 118 105 108 24 6 175 284 283 248 241 229 220 217 213 203 199 198 195 186 180 171 173 174 175 168 140 148 134 116 113 345 357 1 357 360 3 4 18 33 30 5 338 338 1 0 297 254
125 70 59 49 65 341 262 181 276 241 228 238 229 218 213 207 199 196 185 170 168 162 163 168 159 193 183 141 137 143 150 136 49 3 0 354 357 1 4 19 21 11 1 345 339 4 24 7 342
92 88 39 5 6 264 266 206 255 259 234 221 227 214 205 195 189 188 179 172 171 176 179 177 166 193 194 177 161 168 177 167 184 275 337 350 360 356 350 9 15 14 1 2 4 21 2 353 1
158 136 155 192 223 275 314 243 261 280 268 217 203 195 186 183 188 191 189 181 178 184 181 177 180 195 192 191 200 180 175 181 207 213 202 307 306 308 331 359 9 11 13 11 7 2 332 354 340
139 168 160 131 146 291 287 289 303 339 11 85 136 161 183 190 190 194 191 183 179 180 182 185 184 190 195 193 186 176 190 191 202 196 150 298 303 313 349 354 357 353 359 358 7 359 338 345 333
133 142 102 115 145 255 293 279 255 266 265 246 205 202 205 192 197 197 191 186 184 182 180 175 176 189 192 188 187 184 198 202 215 176 262 304 309 330 348 353 347 342 341 341 353 342 332 358 330
111 97 106 113 147 157 250 272 240 221 217 218 225 216 206 197 197 199 192 182 176 167 166 173 176 178 184 183 185 186 196 197 213 225 255 266 288 312 308 305 324 331 341 344 336 314 324 323 317
159 161 147 149 200 168 183 265 291 226 209 202 213 212 201 190 188 179 169 159 166 171 171 177 182 184 189 180 178 189 194 190 211 250 266 264 273 283 279 290 313 313 320 318 307 305 304 276 279